Imperial, CA

11:36 PM PDT on October 16, 2017 (GMT -0700)
Imperial County

Weather History for KIPL - November, 2013

Change the Weather History Date:

Friday, November 29, 2013

  Actual Average Record
Temperature  
Mean Temperature 60 °F -  
Max Temperature 71 °F 71 °F 85 °F (1953)
Min Temperature 48 °F 45 °F 33 °F (1976)
Degree Days  
Heating Degree Days 6    
Growing Degree Days 10 (Base 50)    
Moisture  
Dew Point 41 °F    
Average Humidity 55    
Maximum Humidity 74    
Minimum Humidity 29    
Precipitation  
Precipitation 0.00 in - - ()
Sea Level Pressure  
Sea Level Pressure 30.11 in    
Wind  
Wind Speed 4 mph (West)    
Max Wind Speed 6 mph    
Max Gust Speed -    
Visibility 10 miles    
Events      
Averages and records for this station are not official NWS values.
T = Trace of Precipitation, MM = Missing Value Source: NWS Daily Summary

Daily Weather History Graph

Daily Weather History Graph

Search for Another Location

Airport or City:

Trip Planner

Search our weather history database for the weather conditions in past years. The results will help you decide how hot, cold, wet, or windy it might be!

Date:

Astronomy

Nov. 29, 2013 Rise Set
Actual Time 6:25 AM PST 4:35 PM PST
Civil Twilight 5:58 AM PST 5:02 PM PST
Nautical Twilight 5:28 AM PST 5:33 PM PST
Astronomical Twilight 4:58 AM PST 6:03 PM PST
Moon 2:45 AM PST (11/29) 2:14 PM PST (11/29)
Length of Visible Light 11h 04m
Length of Day
10h 10m
Waning Crescent, 13% of the Moon is Illuminated
Nov 29
Waning Crescent
Dec 2
New
Dec 9
First Quarter
Dec 17
Full
Dec 25
Last Quarter

Hourly Weather History & Observations

Time (PST) Temp. Dew Point Humidity Pressure Visibility Wind Dir Wind Speed Gust Speed Precip Events Conditions
12:53 AM 48.0 °F 39.9 °F 74% 30.05 in 10.0 mi West 4.6 mph - N/A   Clear
1:53 AM 48.9 °F 39.0 °F 69% 30.07 in 10.0 mi WSW 5.8 mph - N/A   Clear
2:53 AM 48.9 °F 37.9 °F 66% 30.07 in 10.0 mi West 5.8 mph - N/A   Clear
3:53 AM 48.9 °F 39.0 °F 69% 30.08 in 10.0 mi SW 4.6 mph - N/A   Clear
4:53 AM 48.9 °F 39.0 °F 69% 30.08 in 10.0 mi Calm Calm - N/A   Clear
5:53 AM 48.0 °F 39.0 °F 71% 30.09 in 10.0 mi West 5.8 mph - N/A   Clear
6:53 AM 48.0 °F 37.9 °F 68% 30.12 in 10.0 mi WSW 3.5 mph - N/A   Clear
7:53 AM 53.1 °F 39.9 °F 61% 30.14 in 10.0 mi WSW 5.8 mph - N/A   Clear
8:53 AM 60.1 °F 44.1 °F 55% 30.15 in 10.0 mi WNW 3.5 mph - N/A   Clear
9:53 AM 66.0 °F 39.0 °F 37% 30.15 in 10.0 mi Variable 3.5 mph - N/A   Clear
10:53 AM 66.9 °F 41.0 °F 39% 30.14 in 10.0 mi Calm Calm - N/A   Clear
11:53 AM 69.1 °F 41.0 °F 36% 30.11 in 10.0 mi Calm Calm - N/A   Clear
12:53 PM 71.1 °F 41.0 °F 34% 30.09 in 10.0 mi West 3.5 mph - N/A   Mostly Cloudy
1:53 PM 71.1 °F 37.0 °F 29% 30.08 in 10.0 mi Calm Calm - N/A   Overcast
2:53 PM 71.1 °F 37.0 °F 29% 30.07 in 10.0 mi NNW 3.5 mph - N/A   Overcast
3:53 PM 70.0 °F 41.0 °F 35% 30.08 in 10.0 mi West 3.5 mph - N/A   Overcast
4:53 PM 66.9 °F 46.0 °F 47% 30.09 in 10.0 mi West 3.5 mph - N/A   Overcast
5:53 PM 64.9 °F 43.0 °F 45% 30.10 in 10.0 mi NW 3.5 mph - N/A   Mostly Cloudy
6:53 PM 61.0 °F 45.0 °F 56% 30.12 in 10.0 mi Calm Calm - N/A   Clear
7:53 PM 57.9 °F 46.0 °F 65% 30.13 in 10.0 mi Calm Calm - N/A   Clear
8:53 PM 55.0 °F 45.0 °F 69% 30.14 in 10.0 mi SW 3.5 mph - N/A   Clear
9:53 PM 55.9 °F 44.1 °F 64% 30.15 in 10.0 mi Calm Calm - N/A   Clear
10:53 PM 52.0 °F 44.1 °F 74% 30.15 in 10.0 mi West 5.8 mph - N/A   Clear
11:53 PM 53.1 °F 42.1 °F 66% 30.14 in 10.0 mi WSW 5.8 mph - N/A   Clear